[[{"header":{"parameterUnit":"m.s-1","parameterCategory":1,"la1":30.2991,"la2":30.254,"lo1":-89.0895,"lo2":-89.0444,"dy":0.0017,"dx":0.0017,"nx":28,"ny":28,"refTime":"2024-04-25T03:00:00:Z","depth":0,"parameterNumber":2,"parameterNumberName":"U-component_of_WINDS"},"data":[0,0,0,0,0,0,0,0,0,0,0,0,0,0,0,0,0,0,0,0,0,0,0,0,0,0,0,0,0,0,0,0,0,0,0,0,0,0,0,0,0,0,0,0,0,0,0,0,0,0,0,0,0,0,0,0,0,0,-0.5145,-0.5145,0,-0.5074,-0.5073,-0.5072,-0.5047,-0.5047,-0.5048,-0.5048,-0.4973,-0.4971,-0.4969,0,0,0,0,0,0,0,0,0,0,0,0,0,-0.5262,-0.526,-0.5145,-0.5144,-0.5144,-0.5074,-0.5073,-0.5072,-0.5047,-0.5048,-0.5048,-0.5048,-0.4974,-0.4971,-0.4969,0,0,0,0,0,0,0,0,0,0,0,0,0,-0.5203,-0.5259,-0.5146,-0.5123,-0.512,-0.5074,-0.5073,-0.5071,-0.5047,-0.5048,-0.5048,-0.5048,-0.4975,-0.4972,-0.4968,-0.4939,0,0,-0.4958,-0.4956,0,0,0,0,0,0,0,0,-0.5206,-0.5199,-0.5127,-0.5124,-0.5121,-0.507,-0.5086,-0.5027,-0.5047,-0.5075,-0.5048,-0.5049,-0.5005,-0.4999,-0.4985,-0.4935,-0.4932,-0.4958,-0.4956,-0.4954,-0.4953,0,0,0,0,0,0,0,-0.521,-0.5202,-0.5117,-0.5126,-0.5123,-0.5117,-0.5109,-0.5075,-0.5038,-0.5072,-0.507,-0.5062,-0.5003,-0.4988,-0.4983,-0.4931,-0.4958,-0.4955,-0.4953,-0.4951,-0.4856,-0.4855,0,0,0,0,0,0,-0.5218,-0.5205,-0.5119,-0.5115,-0.5166,-0.5114,-0.5105,-0.5086,-0.5039,-0.5032,-0.5062,-0.5061,-0.4994,-0.4987,-0.498,-0.4943,-0.4954,-0.4951,-0.4949,-0.4856,-0.4855,-0.4855,0,0,0,0,0,0,-0.5221,-0.5211,-0.5122,-0.5159,-0.5148,-0.5112,-0.509,-0.5084,-0.5069,-0.5031,-0.5024,-0.5053,-0.4994,-0.4985,-0.495,-0.494,-0.4949,-0.4946,-0.4857,-0.4856,-0.4855,-0.4869,0,0,0,0,0,0,-0.5224,-0.5212,-0.52,-0.5159,-0.5146,-0.5093,-0.5089,-0.5083,-0.5063,-0.5062,-0.5021,-0.5014,-0.4993,-0.4955,-0.4946,-0.4936,-0.4944,-0.4857,-0.4856,-0.4855,-0.4869,-0.4869,-0.4868,0,0,0,0,0,-0.5229,-0.5206,-0.52,-0.5189,-0.513,-0.5092,-0.5085,-0.5061,-0.5062,-0.505,-0.5027,-0.5015,-0.4943,-0.4952,-0.4942,-0.493,-0.4858,-0.4857,-0.4855,-0.4869,-0.4869,-0.4868,0,0,0,0,0,0,-0.5246,-0.52,-0.5192,-0.5156,-0.5128,-0.5088,-0.5072,-0.5061,-0.5032,-0.5032,-0.5004,-0.4995,-0.4963,-0.4943,-0.4953,-0.49,-0.49,-0.4897,-0.4914,-0.4913,-0.4913,-0.4918,-0.4941,0,0,0,0,0,-0.5246,-0.5219,-0.518,-0.5152,-0.5139,-0.5108,-0.5091,-0.5075,-0.5045,-0.5033,-0.5007,-0.4978,-0.4949,-0.493,-0.4901,-0.4867,-0.4858,-0.4854,-0.4854,-0.4853,-0.4851,-0.4833,-0.4831,-0.4851,-0.4851,-0.4851,0,0,-0.5244,-0.5216,-0.5201,-0.5155,-0.5131,-0.5105,-0.5098,-0.5069,-0.5049,-0.5029,-0.4994,-0.4974,-0.494,-0.4906,-0.4889,-0.4888,-0.4844,-0.4852,-0.4852,-0.4849,-0.4831,-0.4829,-0.4828,-0.485,-0.485,-0.4851,0,0,-0.5228,-0.5204,-0.5179,-0.5156,-0.5121,-0.5101,-0.5095,-0.5057,-0.5043,-0.5008,-0.4993,-0.4969,-0.4919,-0.4895,-0.4877,-0.4855,-0.4844,-0.4847,-0.4844,-0.4827,-0.4825,-0.4824,-0.4816,-0.4814,-0.4844,-0.4844,-0.4844,0,-0.5231,-0.519,-0.5167,-0.5139,-0.512,-0.5102,-0.5076,-0.5055,-0.5012,-0.4999,-0.4999,-0.4937,-0.4913,-0.4874,-0.4869,-0.4854,-0.4847,-0.4851,-0.4827,-0.4826,-0.4824,-0.4816,-0.4814,-0.4845,-0.4845,-0.4845,-0.4845,0,-0.5195,-0.5167,-0.5151,-0.5111,-0.509,-0.5063,-0.5037,-0.5018,-0.5006,-0.4986,-0.4952,-0.4923,-0.4888,-0.4878,-0.4865,-0.4837,-0.4838,-0.4833,-0.4832,-0.4823,-0.4815,-0.4812,-0.4846,-0.4845,-0.4845,-0.4845,0,0,-0.5186,-0.5136,-0.513,-0.5112,-0.5074,-0.5052,-0.5025,-0.4992,-0.4977,-0.4949,-0.4926,-0.4886,-0.4882,-0.4861,-0.4846,-0.483,-0.4816,-0.4827,-0.4826,-0.4826,-0.4785,-0.4788,-0.4785,-0.4809,-0.4808,-0.4808,-0.4788,0,-0.5165,-0.5117,-0.5096,-0.5057,-0.5032,-0.5015,-0.4992,-0.4966,-0.4948,-0.4924,-0.4903,-0.4875,-0.4871,-0.4859,-0.4844,-0.4821,-0.4807,-0.4822,-0.4788,-0.4787,-0.4796,-0.4781,-0.4785,-0.4767,-0.4785,-0.4784,-0.4784,0,-0.5134,-0.5107,-0.5065,-0.5031,-0.502,-0.4999,-0.4968,-0.4945,-0.4916,-0.4904,-0.4882,-0.4868,-0.484,-0.4843,-0.4804,-0.4815,-0.48,-0.4787,-0.4786,-0.4781,-0.4784,-0.4776,-0.476,-0.4758,-0.4779,-0.4779,-0.478,0,-0.5132,-0.5085,-0.5055,-0.504,-0.4999,-0.4986,-0.4968,-0.494,-0.4922,-0.4895,-0.4883,-0.4853,-0.4837,-0.4814,-0.4792,-0.4796,-0.4756,-0.4757,-0.4746,-0.4746,-0.4737,-0.4738,-0.4719,-0.4728,-0.4728,-0.4728,-0.4728,0,-0.511,-0.5086,-0.5053,-0.5034,-0.5007,-0.4985,-0.4958,-0.4939,-0.4915,-0.4892,-0.4876,-0.4856,-0.4829,-0.4805,-0.4788,-0.4759,-0.4752,-0.4741,-0.4737,-0.4743,-0.4744,-0.4732,-0.4732,-0.4728,-0.4728,-0.4728,-0.4728,0,-0.5103,-0.508,-0.5046,-0.5011,-0.5002,-0.4983,-0.4954,-0.4935,-0.4917,-0.4889,-0.4881,-0.4853,-0.4824,-0.4801,-0.4763,-0.4752,-0.4722,-0.4717,-0.4732,-0.4729,-0.472,-0.4721,-0.4692,-0.4687,-0.47,-0.47,-0.47,0,-0.5091,-0.5072,-0.5035,-0.5019,-0.5002,-0.4977,-0.4959,-0.4937,-0.4918,-0.4885,-0.4871,-0.4842,-0.4817,-0.4772,-0.4748,-0.472,-0.4714,-0.4706,-0.4709,-0.4716,-0.4714,-0.4715,-0.4713,-0.4705,-0.4705,-0.4705,-0.4705,0,-0.5071,-0.5061,-0.5036,-0.5007,-0.4986,-0.4962,-0.4938,-0.4926,-0.49,-0.488,-0.4852,-0.4832,-0.4795,-0.4766,-0.4736,-0.4718,-0.4707,-0.4704,-0.47,-0.4705,-0.4715,-0.471,-0.4731,-0.4705,-0.4705,-0.4705,-0.4705,-0.4705,-0.5061,-0.5044,-0.5016,-0.4988,-0.4968,-0.4946,-0.4928,-0.4908,-0.4883,-0.4851,-0.484,-0.4811,-0.4784,-0.4742,-0.4724,-0.4701,-0.47,-0.4694,-0.4692,-0.4691,-0.4692,-0.4719,-0.4695,-0.4695,-0.4695,-0.4695,-0.4695,0,-0.5041,-0.5022,-0.4998,-0.4965,-0.4944,-0.4936,-0.491,-0.4893,-0.4867,-0.4843,-0.482,-0.4787,-0.476,-0.4734,-0.4706,-0.4692,-0.4687,-0.4686,-0.4686,-0.4682,-0.4695,-0.4701,-0.4691,-0.4691,-0.4691,-0.4691,-0.4691,-0.4691,-0.5028,-0.4998,-0.4986,-0.4947,-0.4929,-0.49,-0.4886,-0.4866,-0.4847,-0.4811,-0.4789,-0.4773,-0.4748,-0.4718,-0.4693,-0.4686,-0.4677,-0.4677,-0.4669,-0.4681,-0.4681,-0.4682,-0.4688,-0.4675,-0.4675,-0.4658,-0.4658,-0.4658]},{"header":{"parameterUnit":"m.s-1","parameterCategory":1,"la1":30.2991,"la2":30.254,"lo1":-89.0895,"lo2":-89.0444,"dy":0.0017,"dx":0.0017,"nx":28,"ny":28,"refTime":"2024-04-25T03:00:00:Z","depth":0,"parameterNumber":3,"parameterNumberName":"V-component_of_WINDS"},"data":[0,0,0,0,0,0,0,0,0,0,0,0,0,0,0,0,0,0,0,0,0,0,0,0,0,0,0,0,0,0,0,0,0,0,0,0,0,0,0,0,0,0,0,0,0,0,0,0,0,0,0,0,0,0,0,0,0,0,4.3238,4.3238,0,4.3213,4.3213,4.3212,4.3214,4.3214,4.3214,4.3215,4.3184,4.3183,4.3182,0,0,0,0,0,0,0,0,0,0,0,0,0,4.3282,4.3281,4.3238,4.3238,4.3237,4.3213,4.3213,4.3212,4.3214,4.3214,4.3215,4.3215,4.3184,4.3183,4.3182,0,0,0,0,0,0,0,0,0,0,0,0,0,4.326,4.3281,4.3238,4.3235,4.3235,4.3213,4.3213,4.3212,4.3214,4.3214,4.3215,4.3215,4.3185,4.3183,4.3181,4.3159,0,0,4.3176,4.3175,0,0,0,0,0,0,0,0,4.3262,4.3259,4.3236,4.3235,4.3235,4.3217,4.3217,4.3194,4.3213,4.3221,4.3215,4.3215,4.3194,4.3192,4.3186,4.3158,4.3157,4.3176,4.3175,4.3174,4.3174,0,0,0,0,0,0,0,4.3263,4.326,4.3228,4.3235,4.3235,4.3234,4.3231,4.3213,4.3205,4.3221,4.3221,4.3218,4.3194,4.3187,4.3185,4.3156,4.3176,4.3174,4.3173,4.3173,4.3109,4.3109,0,0,0,0,0,0,4.3266,4.3261,4.3229,4.3227,4.325,4.3232,4.323,4.3222,4.3205,4.3203,4.3218,4.3218,4.319,4.3187,4.3184,4.3157,4.3174,4.3172,4.3171,4.311,4.3109,4.3109,0,0,0,0,0,0,4.3267,4.3263,4.323,4.3244,4.324,4.3231,4.3223,4.3221,4.3215,4.3203,4.3201,4.3213,4.319,4.3186,4.3166,4.3156,4.3172,4.317,4.3111,4.311,4.3109,4.3104,0,0,0,0,0,0,4.3268,4.3263,4.3256,4.3244,4.3239,4.3214,4.3222,4.322,4.3212,4.3213,4.3198,4.3196,4.319,4.3169,4.3164,4.3154,4.3169,4.3112,4.311,4.3109,4.3105,4.3103,4.3102,0,0,0,0,0,4.327,4.3254,4.3256,4.3252,4.323,4.3213,4.321,4.3206,4.3212,4.3204,4.3196,4.3196,4.3158,4.3166,4.3162,4.3151,4.3112,4.3111,4.3109,4.3106,4.3104,4.3102,0,0,0,0,0,0,4.3263,4.3253,4.3254,4.3235,4.3225,4.3213,4.3203,4.3204,4.3191,4.3192,4.3186,4.3182,4.3162,4.3154,4.3164,4.3129,4.3136,4.3133,4.3135,4.3132,4.3131,4.3133,4.3167,0,0,0,0,0,4.326,4.3249,4.324,4.3223,4.3219,4.3212,4.3204,4.3202,4.3191,4.3187,4.3177,4.3165,4.3151,4.3141,4.3127,4.3104,4.31,4.3094,4.3092,4.3091,4.3089,4.3076,4.3074,4.3104,4.3104,4.3104,0,0,4.3253,4.3245,4.3238,4.3222,4.3214,4.3202,4.3208,4.3194,4.3184,4.3184,4.3165,4.3158,4.3143,4.3122,4.3112,4.3115,4.308,4.3089,4.3088,4.3087,4.3075,4.3072,4.3069,4.3103,4.3103,4.3103,0,0,4.3233,4.3226,4.3213,4.3205,4.3194,4.319,4.3186,4.3175,4.3171,4.3152,4.3151,4.3138,4.3113,4.3104,4.3095,4.3073,4.3072,4.3068,4.3058,4.3046,4.3044,4.3042,4.3034,4.3031,4.3066,4.3066,4.3066,0,4.3224,4.3207,4.3205,4.3192,4.3184,4.3185,4.317,4.3162,4.3146,4.3141,4.3145,4.3114,4.3104,4.3081,4.3076,4.3069,4.3064,4.307,4.3045,4.3043,4.304,4.3033,4.303,4.3065,4.3065,4.3065,4.3065,0,4.3197,4.3185,4.3175,4.3162,4.3153,4.3139,4.3134,4.3125,4.3123,4.3118,4.3099,4.3088,4.3072,4.3066,4.3063,4.3042,4.3044,4.3046,4.3053,4.3037,4.303,4.3027,4.3065,4.3065,4.3065,4.3065,0,0,4.3172,4.3159,4.3156,4.315,4.3138,4.3128,4.3113,4.31,4.3092,4.3081,4.3068,4.3047,4.305,4.304,4.3037,4.3026,4.3009,4.303,4.303,4.3027,4.2985,4.2983,4.298,4.3009,4.3008,4.3008,4.2986,0,4.3152,4.3128,4.3126,4.3105,4.3093,4.3094,4.3081,4.3072,4.3066,4.3054,4.3048,4.3033,4.3038,4.3032,4.3022,4.3014,4.3001,4.3015,4.2996,4.2995,4.3,4.2976,4.2974,4.2954,4.2983,4.2982,4.2982,0,4.3124,4.3115,4.3093,4.3083,4.3078,4.3067,4.3054,4.3043,4.3032,4.3029,4.3019,4.3017,4.3001,4.3008,4.2985,4.2995,4.2987,4.2982,4.2981,4.2979,4.2988,4.2973,4.2948,4.2945,4.2977,4.2978,4.2978,0,4.3109,4.309,4.3075,4.307,4.3058,4.305,4.3044,4.3034,4.3026,4.3014,4.3009,4.2995,4.2987,4.2975,4.2969,4.2975,4.2946,4.2953,4.2942,4.2943,4.2936,4.2937,4.2909,4.2931,4.2931,4.2931,4.2931,0,4.3086,4.3073,4.3068,4.3058,4.3043,4.304,4.3024,4.3018,4.3009,4.2998,4.2997,4.2985,4.2978,4.2965,4.296,4.2942,4.2938,4.2934,4.2933,4.2934,4.2935,4.2929,4.293,4.293,4.293,4.293,4.2931,0,4.3067,4.3063,4.3046,4.3037,4.3034,4.3023,4.3015,4.3005,4.3,4.2985,4.2981,4.2973,4.2958,4.2951,4.2931,4.2928,4.2907,4.2907,4.2912,4.2911,4.2901,4.2902,4.2869,4.2864,4.2889,4.2889,4.2888,0,4.3053,4.3042,4.3033,4.3026,4.3021,4.3009,4.3002,4.2998,4.299,4.2977,4.2968,4.2953,4.2942,4.2917,4.2908,4.2894,4.2893,4.2882,4.289,4.2892,4.2893,4.2894,4.2893,4.288,4.288,4.288,4.288,0,4.3028,4.3027,4.3017,4.3006,4.2998,4.2989,4.298,4.2974,4.2968,4.2959,4.2945,4.2936,4.2917,4.2902,4.2887,4.2879,4.2878,4.2877,4.2874,4.2876,4.2879,4.2877,4.2908,4.2878,4.2878,4.2878,4.2879,4.2879,4.3011,4.3002,4.2994,4.2983,4.2976,4.2968,4.2959,4.2953,4.2942,4.2928,4.2926,4.2911,4.2899,4.2879,4.2871,4.2858,4.286,4.2856,4.2854,4.2853,4.2853,4.2881,4.2855,4.2855,4.2855,4.2855,4.2855,0,4.2987,4.2982,4.2972,4.296,4.2951,4.2953,4.2943,4.2935,4.2922,4.2913,4.2902,4.2885,4.2871,4.2862,4.2847,4.2838,4.2837,4.2834,4.2835,4.2833,4.2852,4.2856,4.2835,4.2835,4.2835,4.2835,4.2835,4.2835,4.2973,4.2959,4.2957,4.2938,4.2933,4.292,4.2914,4.2906,4.2899,4.2881,4.287,4.2865,4.2855,4.2839,4.2826,4.2823,4.2818,4.2815,4.2812,4.283,4.2832,4.2834,4.2838,4.2814,4.2814,4.2795,4.2795,4.2795]}]]